Regional Weather Roundup
Issued by NWS Newport/Morehead, NC

Current Version | Previous Version | Graphics & Text | Print | Product List | Glossary Off
Versions: 1 2 3 4 5 6 7 8 9 10 11 12 13 14 15 16 17 18 19 20 21 22 23 24 25 26 27 28 29 30 31 32 33 34 35 36 37 38 39 40 41 42 43 44 45 46 47 48 49 50

000
ASUS42 KMHX 201710
RWRMHX
WEATHER ROUNDUP FOR EASTERN NORTH CAROLINA
NATIONAL WEATHER SERVICE NEWPORT/MOREHEAD CITY NC
100 PM EDT SAT SEP 20 2014

NOTE: "FAIR" INDICATES FEW OR NO CLOUDS BELOW 12,000 FEET
WITH NO SIGNIFICANT WEATHER AND/OR OBSTRUCTIONS TO VISIBILITY

NCZ015>017-031-032-045>047-102-103-201800-
NORTH COAST

CITY           SKY/WX    TMP DP  RH WIND       PRES   REMARKS
EDENTON        PTSUNNY   78  67  68 NE10G17   30.12F
ELIZABETH CITY LGT RAIN  76  68  76 NE15      30.13F
KITTY HAWK     CLOUDY    73  70  91 NE5G16    30.11F
MANTEO         CLOUDY    73  69  89 N14       30.12F

$$

NCZ045>047-081-094-103-104-201800-
CENTRAL COAST

CITY           SKY/WX    TMP DP  RH WIND       PRES   REMARKS
FRISCO         CLOUDY    72  72 100 NE10      30.09F
SWANQUARTER      N/A     75 N/A N/A NE12G22   30.06S

$$

NCZ095-097-098-100-101-201800-
SOUTHERN COAST

CITY           SKY/WX    TMP DP  RH WIND       PRES   REMARKS
BEAUFORT       CLOUDY    77  70  79 NE12G21   30.07F
CEDAR ISLAND     N/A     73 N/A N/A N18       30.12F
JACKSONVILLE   CLOUDY    74  70  87 N9        30.08F
NEWPORT        NOT AVBL
PINEY ISLAND   CLOUDY    77  69  76 NE13      30.08F
WILMINGTON     CLOUDY    76  67  73 N16       30.07F


$$

NCZ011>013-027>030-043-044-078>080-089-090>093-098-201800-
COASTAL PLAIN

CITY           SKY/WX    TMP DP  RH WIND       PRES   REMARKS
AHOSKIE        PTSUNNY   76  64  67 N12G18    30.15F
CLINTON        CLOUDY    79  65  61 N13G18    30.12F
ELIZABETHTOWN  CLOUDY    77  64  63 NE3       30.10F
GOLDSBORO      CLOUDY    78  67  69 N13G20    30.10F
GREENVILLE     CLOUDY    79  64  61 NE13      30.14F
HAVELOCK       CLOUDY    76  71  85 N10       30.10F
KENANSVILLE    CLOUDY    77  62  59 N15       30.12F
KINSTON        CLOUDY    77  64  65 N10G17    30.13F
NEW BERN       CLOUDY    79  70  73 N10       30.11F
RICHLANDS      CLOUDY    73  66  78 N9        30.10F
ROANOKE RAPIDS NOT AVBL
ROCKY MOUNT    PTSUNNY   78  61  55 NE8       30.15F
WASHINGTON     CLOUDY    77  67  70 N10       30.12F
WHITEVILLE     CLOUDY    75  65  69 NE9       30.08F

$$

AMZ130-135-150-152-154-156-158-170-250-252-270-ANZ085-086-088-633-658-670-201800-
MARINE OBSERVATIONS

STATION/POSITION TIME  TEMP    WIND        PRES    WAVE   SWELL
                       AIR SEA DIR/SP/G            HT/PER HT/PER
                 (UTC) (F)     (DEG/KT/KT) (MB)    (FT/S) (FT/S)
CHESAPEAKE LIGHT 1600   71      50/ 20/ 21 1022.4
BUOY 44014       1700   74 77   30/ 16/ 17 1020.0    8/10   5/10
DUCK             1700   72 74   30/ 21/ 23 1019.4
2E DUCK          1700                        N/A     7/ 8   2/11
OREGON INLET     1700   74 72   10/ 12/ 17 1019.3
BUOY 44095       1700      74                N/A     8/10   3/11
20E OREGON INLET NOT AVBL
HATTERAS CG      1700   73 73   10/ 13/ 18 1019.5
DIAMOND BUOY     1700   80     110/ 12/ 16 1018.2    8/ 8   7/ 8
CAPE LOOKOUT     1600   72      10/ 13/ 15 1018.5
BEAUFORT LAB     1700   75 75   20/ 11/ 16 1017.8
30 SE NEW RIVER  1700   76 83   30/ 21/ 25 1017.5    6/ 6
5 SE WRIGHTSVILL 1600   72 80   40/ 19/ 21   N/A
BUOY 41002       1603   77 82  100/ 21/ 27 1014.1    8/ 7   2/11
BUOY 41004       1700   78 82   30/ 21/ 25 1014.3    7/ 7   2/12

$$


USA.gov is the U.S. government's official web portal to all federal, state and local government web resources and services.